Lapse_Rate
4.8 4.5 4.3 4.4 4.3 4.4 4.3 4.4 4.6 4.9 5.3 5.7 6.1 6.5 6.4 6.4 6.7 6.5 6.6 6.7 6.6 6.6 6.6 6.6 6.4 6.2 5.8 5.7 5.6 5.6 5.2 4.9 4.8 5.3 6.2 7.2 6.2 6.2 5.8 5.9 6.0 5.9 6.0 6.4 6.8
4.4 4.4 4.0 3.9 3.9 4.0 4.2 4.3 4.4 4.7 4.8 5.1 5.6 6.2 6.6 6.4 6.6 6.4 6.5 6.8 6.7 6.6 6.5 6.5 6.4 6.2 5.8 5.9 5.6 5.6 5.4 5.1 5.5 6.0 6.0 6.5 5.9 6.2 5.5 5.4 5.9 6.1 6.0 6.3 6.5
4.5 4.2 4.2 4.0 4.0 3.8 4.1 4.3 4.4 4.5 4.8 5.1 5.4 5.8 6.3 6.3 6.5 6.6 6.4 6.7 6.8 6.8 6.7 6.6 6.6 6.2 5.8 5.9 5.5 5.8 5.6 5.8 5.7 5.8 5.7 5.7 5.9 6.0 5.5 5.4 6.2 6.3 6.1 6.3 6.5
3.9 4.3 4.1 4.1 4.1 4.0 3.9 4.2 4.3 4.4 4.6 4.7 5.2 5.7 6.2 6.4 6.3 6.2 6.2 6.2 6.4 6.6 6.6 6.3 6.2 6.1 5.6 5.5 5.8 5.5 6.0 6.0 5.6 5.7 5.6 5.9 6.2 6.0 6.0 5.6 6.6 6.5 6.5 6.5 6.6
4.2 4.2 4.3 4.3 4.2 4.2 4.3 4.2 4.4 4.4 4.6 4.6 4.7 5.4 6.2 6.5 6.5 5.8 6.1 6.3 6.4 6.2 6.2 6.0 6.0 5.9 5.7 5.6 5.6 5.3 5.9 5.6 5.6 5.7 6.0 5.9 5.9 6.6 5.9 6.5 7.1 6.5 6.5 6.6 6.7
4.1 3.9 4.1 4.2 4.2 4.2 4.4 4.4 4.4 4.6 4.6 4.7 4.9 5.3 6.2 6.8 6.3 6.2 5.9 6.2 6.2 6.1 6.1 6.3 6.0 5.4 5.2 5.4 5.6 5.6 5.4 5.6 5.5 5.9 5.9 6.0 6.4 5.5 7.0 7.0 7.1 7.0 6.6 6.9 7.0
3.8 3.6 3.9 4.1 4.5 4.6 4.6 4.6 4.6 4.9 4.9 5.0 5.4 5.7 6.3 6.8 6.6 6.4 6.0 6.2 6.1 6.1 6.2 6.6 6.2 5.4 5.2 5.7 5.4 5.5 5.0 5.1 5.8 5.9 5.8 6.0 5.4 6.3 6.5 7.1 6.9 7.0 6.8 7.3 7.3
3.7 3.8 4.0 4.0 4.4 4.6 4.8 4.8 4.8 5.0 5.2 5.3 5.6 5.8 6.3 6.6 6.6 6.5 6.5 6.3 6.2 6.3 6.0 6.1 6.3 5.5 5.2 5.5 5.7 5.3 5.2 5.1 5.6 6.1 6.0 5.6 4.6 5.5 6.3 6.3 6.5 6.4 6.8 7.1 7.5
4.1 4.3 4.4 4.2 4.4 5.0 5.2 5.1 5.2 5.3 5.6 5.8 5.8 5.9 6.3 6.5 6.6 6.6 6.8 6.6 6.4 6.4 6.4 6.0 5.6 6.0 5.6 5.5 5.3 5.3 5.1 5.4 5.5 5.8 5.6 5.4 4.7 5.5 6.4 5.8 5.8 5.9 6.7 6.7 7.2
4.9 4.9 4.7 4.9 5.4 5.7 5.6 5.5 5.5 5.7 5.9 6.1 6.3 6.3 6.2 6.3 6.4 6.3 6.3 6.6 6.3 6.2 6.8 6.4 6.2 5.8 5.9 5.8 5.5 5.8 5.2 5.1 5.1 5.8 5.8 4.9 4.8 5.1 6.0 5.6 5.3 5.7 6.2 6.6 7.0
5.1 5.1 4.9 5.0 5.6 5.9 5.8 5.7 5.8 6.0 6.2 6.2 6.4 6.4 6.9 6.5 6.3 6.7 6.4 6.4 6.5 5.8 7.3 6.9 6.4 6.6 7.1 6.5 5.9 5.5 5.1 4.5 5.2 5.3 4.8 5.0 5.1 5.2 5.1 5.3 5.2 5.6 5.9 6.5 7.2
5.4 5.4 5.6 5.8 6.0 6.1 6.2 6.1 6.1 5.9 6.5 6.9 6.8 6.8 6.8 6.9 6.9 7.1 6.6 6.4 6.6 6.6 6.5 6.6 6.5 7.0 6.8 6.1 5.6 5.3 4.9 4.8 5.1 5.2 4.3 4.4 4.6 4.9 5.2 5.2 5.4 5.7 5.7 6.5 7.4
5.7 5.8 5.9 6.3 6.3 6.4 6.1 6.0 6.2 6.1 5.9 6.6 6.7 6.6 6.5 6.2 6.3 7.2 6.1 6.4 6.2 6.4 7.2 6.9 7.1 7.3 7.2 6.2 5.8 5.5 5.0 5.2 4.6 4.8 4.8 4.8 4.5 5.6 5.5 5.3 5.5 5.7 5.8 6.8 7.4
5.9 6.2 6.3 6.5 6.6 6.5 6.3 6.2 6.2 6.2 6.1 6.1 6.0 6.0 6.0 6.1 6.1 6.1 6.6 6.5 5.8 6.3 6.7 6.8 7.0 6.7 6.3 6.0 5.8 5.3 5.7 5.0 4.6 4.3 4.6 4.7 4.6 4.7 5.4 5.7 5.8 6.4 6.6 7.3 7.7
6.1 6.4 6.7 6.8 6.7 6.7 6.6 6.5 6.2 6.0 6.1 6.1 5.9 6.1 6.2 6.0 5.8 6.1 6.7 6.5 5.8 6.1 6.9 7.1 7.2 7.0 6.4 6.6 6.4 5.7 5.5 5.2 4.9 4.4 4.1 4.8 4.5 4.8 5.5 6.3 6.9 7.0 7.5 8.0 8.0
6.6 6.7 6.8 6.9 7.0 6.9 6.8 6.7 6.3 6.3 6.2 6.6 6.0 6.3 6.4 6.7 6.4 6.1 6.2 6.2 5.9 5.7 6.1 6.4 7.0 7.1 7.1 6.7 6.2 5.6 5.6 5.5 5.0 4.6 4.7 5.5 4.9 5.6 5.9 6.7 6.8 7.2 7.9 7.9 7.9
6.9 6.9 6.9 6.9 6.9 6.8 6.9 6.5 6.2 6.2 6.6 6.0 6.4 6.3 6.2 6.6 6.8 6.2 6.2 6.3 6.2 6.0 6.0 6.3 6.8 7.2 7.0 6.4 6.1 5.9 5.6 6.0 5.7 5.5 6.1 5.5 5.0 6.3 6.2 6.3 7.0 7.3 7.4 7.7 8.0
6.9 6.9 6.9 7.0 6.9 6.7 6.4 6.3 5.9 5.5 5.9 5.9 6.4 6.8 6.3 6.3 6.7 6.7 6.4 6.5 6.5 6.7 6.8 6.8 7.0 7.2 6.9 6.5 6.4 6.1 5.9 6.3 6.2 6.1 5.8 5.6 6.1 6.2 6.0 6.1 6.6 7.3 7.8 7.9 8.1
7.0 7.0 7.0 6.9 6.8 6.5 6.2 5.9 5.6 5.3 5.2 5.9 6.6 6.6 6.8 6.7 6.5 7.0 6.8 7.0 7.1 7.0 7.0 7.1 7.1 7.2 7.0 6.8 6.4 5.9 5.7 5.9 5.7 5.7 5.1 6.3 6.4 6.4 6.2 6.4 6.8 7.4 7.6 8.0 8.4
7.1 7.0 6.9 6.8 6.6 6.3 5.9 5.9 5.7 5.7 5.8 5.9 5.9 6.1 5.9 6.6 6.7 6.6 7.1 6.9 7.3 7.0 7.1 7.1 7.2 7.0 6.9 6.7 6.5 6.2 6.0 5.9 5.6 5.9 6.1 6.8 6.7 6.5 6.2 6.5 6.8 7.3 7.9 8.1 8.5
7.0 7.0 6.9 6.5 6.3 6.1 5.8 5.7 5.8 5.7 5.8 5.8 5.9 5.8 6.0 6.2 7.0 6.8 7.1 6.9 7.1 7.5 7.3 7.0 7.2 6.9 7.0 6.9 6.9 6.3 6.2 6.1 5.8 5.6 6.3 6.5 7.2 6.3 6.3 5.7 5.7 6.2 7.4 8.2 8.5
7.1 6.8 6.5 6.2 6.0 5.9 5.7 5.5 5.6 5.8 5.7 6.0 6.4 6.6 6.5 6.5 6.7 6.7 7.4 6.9 6.8 7.0 7.3 7.4 7.4 7.3 7.4 7.1 6.9 6.8 6.3 6.2 5.9 6.2 6.1 6.0 6.7 6.5 6.2 6.0 5.8 5.8 6.3 7.5 8.2
7.0 6.6 6.2 5.9 5.6 5.4 5.3 5.4 5.6 6.2 6.6 6.6 6.7 6.8 6.8 6.8 6.7 6.8 6.9 6.9 6.7 6.7 7.1 7.2 7.1 7.3 7.1 6.8 6.9 6.7 6.8 6.4 6.1 6.0 6.0 6.6 7.1 6.4 6.2 5.7 5.9 5.8 5.9 6.3 7.6
6.6 6.0 5.7 5.4 5.1 4.9 5.1 5.8 6.4 6.4 6.6 6.4 6.6 6.8 6.7 6.7 6.9 6.7 6.5 6.3 6.3 6.7 6.9 6.9 7.0 6.9 7.7 7.1 7.1 7.0 6.9 6.4 6.1 5.8 6.1 6.2 6.5 6.9 6.2 5.8 5.7 5.8 5.7 6.1 6.2
6.1 5.6 5.5 5.1 4.7 5.1 5.7 6.1 6.3 6.4 6.6 6.3 6.7 6.6 6.3 6.4 6.8 7.0 6.9 6.3 6.2 6.5 6.8 6.8 6.3 6.4 7.0 7.0 7.1 7.1 7.0 6.9 6.4 6.3 5.9 6.7 6.1 6.8 6.3 6.0 5.6 5.6 5.5 5.8 6.1
5.9 5.7 5.3 5.0 5.5 5.7 5.7 6.0 6.2 6.2 6.6 6.7 6.6 6.3 6.4 6.4 6.2 6.8 6.4 6.8 6.4 6.5 6.7 6.8 6.7 6.4 6.8 7.1 7.1 7.3 7.5 7.0 6.7 6.6 6.6 6.3 6.6 6.3 6.5 5.9 5.8 5.4 5.4 5.4 5.8
5.5 5.5 5.3 5.9 5.9 5.8 6.0 6.0 6.1 6.0 6.6 6.6 6.6 6.5 7.0 6.7 6.6 6.6 6.7 6.9 6.8 6.8 6.8 6.7 6.9 6.7 7.0 7.1 7.4 7.3 6.9 6.9 6.7 6.7 6.5 6.4 6.5 6.4 6.5 6.3 6.1 5.6 5.1 5.3 4.9
Wind_Speed
12 15 16 17 18 17 17 19 19 20 20 20 21 19 21 23 26 8 7 7 6 5 9 7 3 4 3 4 3 3 5 10 8 8 6 4 4 2 1 5 2 2 2 4 6
13 14 17 17 17 18 19 20 21 22 20 20 21 22 22 24 14 10 11 8 13 3 8 9 7 6 3 4 4 5 6 9 7 7 10 8 6 9 4 8 11 12 4 1 4
12 15 15 17 18 20 21 22 23 23 21 20 19 19 21 19 4 3 11 9 8 8 1 2 8 6 4 3 6 5 9 5 5 8 7 7 12 8 11 13 17 16 7 8 5
14 14 16 16 19 22 23 22 24 24 22 20 17 15 19 3 5 2 12 3 3 7 3 5 4 7 4 6 5 6 7 8 5 12 13 18 21 20 16 13 18 18 18 13 14
13 16 15 17 20 23 24 25 26 26 23 19 13 10 4 3 9 5 9 11 2 5 6 6 5 5 5 5 3 6 6 8 13 13 16 15 19 19 14 12 20 14 12 17 16
11 14 16 17 22 26 28 28 29 28 25 20 11 3 2 4 0 3 8 6 2 1 3 5 5 6 4 5 6 3 6 8 7 14 14 19 23 12 14 14 18 13 15 18 17
11 14 16 19 22 26 30 31 31 29 29 20 9 6 4 14 1 6 6 5 2 2 3 4 4 4 3 2 3 4 7 10 12 10 9 11 12 15 19 19 18 19 17 17 15
12 14 17 19 22 26 30 33 31 27 16 2 11 5 7 5 7 7 3 5 8 7 3 4 3 4 3 3 2 4 4 7 2 1 7 6 9 9 10 12 15 17 15 14 17
11 14 17 19 22 27 32 33 23 4 11 17 6 4 9 5 4 4 8 3 2 5 3 2 2 3 2 4 5 2 6 6 5 6 10 8 9 6 11 9 12 13 13 11 13
13 15 17 20 23 29 32 27 6 3 5 3 5 2 5 2 1 4 5 2 2 5 3 4 2 3 1 7 8 5 5 4 4 6 13 19 21 12 14 10 12 13 13 11 13
13 15 17 21 24 26 15 3 5 2 5 6 10 5 16 10 8 5 2 1 3 3 6 4 7 13 16 11 13 9 11 13 10 8 14 17 22 20 16 13 15 14 15 14 13
12 14 17 21 24 16 5 5 4 5 10 16 20 17 21 15 9 8 2 5 7 10 4 1 11 11 7 11 9 10 12 13 10 8 9 14 23 20 18 21 20 19 17 17 15
12 13 16 21 12 6 2 5 4 3 4 9 5 5 4 8 6 8 5 4 5 10 10 10 4 2 11 6 8 9 10 9 10 13 12 17 20 18 16 19 19 16 17 17 17
10 13 17 21 5 4 2 6 9 4 3 5 2 2 2 2 4 6 11 7 6 10 5 7 8 8 6 7 8 7 6 9 7 6 4 6 10 11 16 17 16 17 15 15 15
11 12 15 11 2 2 4 16 11 2 5 9 3 1 1 4 5 0 5 7 10 5 6 6 5 6 12 13 8 5 2 4 6 8 7 9 7 5 6 12 15 16 17 16 13
10 12 13 3 2 4 13 12 1 1 5 7 5 11 12 3 3 5 3 4 3 5 3 5 1 4 4 3 6 3 2 6 5 4 4 11 12 7 6 5 9 10 9 9 12
11 12 7 2 2 11 10 2 2 3 8 8 8 11 11 10 6 2 5 6 4 4 8 4 6 2 3 3 1 3 1 2 1 3 4 1 9 12 15 12 11 10 13 14 13
15 10 5 0 12 7 2 3 3 4 5 7 8 12 4 12 7 13 1 4 4 3 2 6 3 8 5 10 4 6 5 3 3 2 2 1 6 1 8 10 12 12 13 14 15
10 3 3 3 7 2 3 3 1 2 6 10 11 5 5 7 6 12 7 3 5 9 5 4 2 2 4 2 4 3 5 1 2 3 4 4 4 10 13 17 19 18 17 19 20
2 2 3 11 5 3 4 3 1 2 5 4 3 6 6 10 8 10 5 7 10 3 5 3 1 1 3 3 3 3 4 3 3 3 4 3 3 4 14 18 19 19 18 17 19
3 3 2 11 2 4 3 1 3 3 4 3 2 5 5 5 3 3 5 7 15 13 9 3 2 1 5 6 8 4 2 3 1 3 2 3 1 4 9 11 13 15 15 15 15
2 3 3 4 3 2 1 1 4 4 2 4 3 5 5 6 5 4 6 1 15 17 7 2 3 4 6 2 6 5 6 5 2 2 3 1 4 3 6 10 11 11 13 14 14
2 1 2 2 2 1 1 3 3 3 3 3 4 4 4 4 4 8 5 1 11 11 4 7 1 3 4 3 5 2 1 1 4 3 4 3 2 2 2 6 3 9 10 13 15
2 2 3 2 1 2 2 3 3 4 4 3 5 6 7 5 7 6 6 4 7 15 15 6 1 5 3 5 3 3 4 3 3 2 3 7 14 13 3 3 5 7 9 11 12
2 0 0 1 1 1 1 2 3 4 2 4 3 3 7 5 9 6 9 5 4 12 4 2 1 3 1 2 2 2 6 7 7 8 7 10 14 16 12 6 8 8 10 12 12
2 2 1 0 1 1 1 2 6 4 2 5 6 9 10 8 12 20 19 14 4 3 2 2 1 2 3 3 2 6 10 8 8 7 14 15 19 15 15 4 9 10 13 11 10
1 2 1 1 2 1 3 2 2 7 6 7 10 14 15 13 11 11 14 12 14 8 3 2 4 1 3 2 7 3 4 5 3 7 7 8 15 11 4 5 9 11 13 13 8
Wind_Direction
353 353 347 345 343 342 340 335 332 331 328 330 327 326 326 324 318 307 243 218 211 260 188 136 143 129 117 127 126 145 216 235 227 213 248 253 252 231 271 272 310 264 273 319 311
348 348 343 341 341 339 335 331 327 325 324 326 328 326 329 326 318 269 257 226 223 285 157 161 155 146 139 144 178 195 226 233 202 225 259 268 245 261 291 294 284 296 283 21 176
343 343 345 339 338 332 331 328 323 321 321 323 325 328 329 329 326 250 347 211 202 195 187 154 124 135 170 155 191 189 237 214 207 231 247 259 261 258 262 263 267 284 281 291 237
336 341 338 339 332 330 329 324 321 317 318 316 322 329 326 335 309 100 4 348 221 163 151 130 125 143 171 201 212 236 230 225 226 243 254 253 267 262 252 254 269 271 275 281 271
334 334 336 334 329 326 324 319 316 314 313 307 312 327 351 354 252 328 7 348 24 148 172 156 155 140 184 195 193 235 259 246 247 252 252 258 250 256 263 241 262 267 263 267 266
336 336 336 334 329 326 322 317 312 313 307 296 289 290 150 284 187 354 360 344 328 216 200 168 196 207 216 203 207 199 224 271 251 244 248 251 259 252 259 245 255 247 262 268 263
335 338 336 332 329 326 320 315 313 312 304 291 243 185 232 248 241 300 304 275 228 247 233 221 183 191 178 261 224 254 276 277 255 235 240 244 254 243 253 257 246 261 255 263 267
345 340 336 332 326 323 317 313 312 313 317 288 161 173 243 260 254 270 198 264 232 236 253 292 186 197 197 277 307 269 259 264 238 219 248 207 249 278 262 248 249 253 254 264 275
347 344 338 333 326 324 317 313 315 343 98 119 126 189 266 281 273 265 178 227 155 172 208 306 160 205 152 202 270 207 256 226 282 264 283 240 290 306 309 310 289 267 270 268 278
349 344 332 332 334 327 321 317 265 146 154 257 126 239 255 248 312 286 177 204 264 119 147 166 183 204 180 198 238 201 218 232 254 299 305 292 285 288 296 296 277 278 275 270 271
352 348 338 338 336 332 336 12 10 333 14 263 247 267 287 280 305 256 149 146 154 178 172 179 207 220 227 223 238 271 274 269 270 268 294 283 282 286 281 277 281 276 272 270 261
355 346 343 338 336 346 1 68 75 281 303 270 250 256 262 274 293 290 284 187 176 206 113 188 234 237 214 216 233 249 268 278 281 257 294 293 286 285 275 275 274 274 265 261 263
350 347 350 338 350 45 16 97 303 263 271 300 244 225 262 160 224 260 224 197 193 192 187 207 210 130 206 203 228 244 247 267 279 308 290 289 288 274 260 252 253 253 254 263 257
359 354 358 342 44 348 315 336 324 209 320 282 341 320 123 123 238 224 214 193 200 207 176 239 234 207 185 221 197 264 237 254 281 306 288 11 292 283 279 266 246 243 249 256 254
358 358 8 30 307 346 288 324 319 198 332 344 42 147 197 220 293 150 164 210 214 165 158 223 187 195 221 237 185 233 228 239 263 268 292 260 261 318 292 270 262 253 247 247 256
359 355 354 15 3 262 316 310 138 18 259 334 13 345 348 315 273 139 163 258 190 193 255 244 323 184 201 186 191 148 231 259 248 257 256 239 219 282 279 324 321 327 284 321 311
355 351 354 78 273 320 323 356 41 206 360 355 341 332 331 332 319 275 172 186 167 176 214 193 219 193 163 185 195 181 164 292 240 193 260 95 178 259 329 358 4 357 351 340 330
349 359 357 322 312 305 343 57 201 32 344 356 331 314 12 21 346 338 260 199 223 193 155 204 215 175 185 211 207 181 188 221 247 233 300 200 233 181 28 17 11 16 1 340 334
1 8 29 331 347 14 62 83 87 26 328 326 328 345 351 10 345 9 321 254 229 191 215 178 263 163 163 163 180 139 199 263 298 233 268 241 260 191 14 18 10 7 7 353 343
47 45 345 331 353 43 71 113 244 27 328 332 314 18 334 334 333 7 303 17 343 282 326 226 199 28 110 102 40 163 141 187 171 245 240 257 258 331 19 9 0 2 4 355 347
56 62 291 344 32 47 96 204 292 272 356 333 321 312 300 300 287 287 275 328 17 342 313 183 215 80 149 197 178 166 207 226 237 236 270 297 277 93 54 28 8 5 1 356 355
84 63 322 344 51 54 81 343 311 290 283 282 244 249 260 298 298 262 247 300 344 312 294 236 168 194 213 111 198 179 190 203 217 205 236 269 270 143 90 39 20 19 8 1 1
71 338 319 52 99 120 284 278 260 294 284 327 298 273 310 283 313 281 273 328 336 314 338 338 197 192 145 111 65 138 131 301 290 239 248 280 309 169 72 35 338 42 33 12 5
81 55 341 52 128 97 47 304 308 310 282 271 266 286 293 272 242 275 283 303 348 324 285 360 340 274 191 95 132 188 235 253 153 266 359 276 284 293 260 323 73 56 48 41 15
99 183 166 27 94 115 241 243 298 324 316 318 294 68 8 310 312 257 264 282 298 306 280 76 353 323 159 105 171 194 248 252 241 239 242 278 275 282 291 255 129 103 66 46 28
130 122 110 225 254 11 339 253 280 308 276 293 264 332 326 297 290 295 304 297 262 293 344 36 197 233 318 154 194 268 278 283 260 256 257 273 279 283 278 203 139 116 92 63 41
42 104 89 298 154 135 233 245 322 337 288 259 310 318 303 303 314 299 288 270 274 285 336 284 173 228 268 283 318 253 157 335 286 292 278 299 304 291 333 192 141 121 103 93 51